Regional Weather Roundup
Issued by NWS Midland/Odessa, TX

Skip options and go directly to product.
Home | Oldest Version | Previous Version | Current Version | All | Text Only | Save Text | Print | Product List | Glossary On

Skip product version selection by date and time.   
027
ASUS44 KMAF 241302
RWRMAF
MIDLAND AREA WEATHER ROUNDUP
NATIONAL WEATHER SERVICE MIDLAND TX
800 AM CDT THU JUL 24 2014

...IN SOUTHWEST TEXAS AND SOUTHEAST NEW MEXICO...

CITY           SKY/WX    TMP DP  RH WIND       PRES   REMARKS
ALPINE         CLEAR     69  57  67 SW5       30.29S
ANDREWS        FAIR      75  60  60 CALM      30.18S
ARTESIA        CLEAR     72  48  43 W5        30.22R
BIG SPRING     SUNNY     74  59  60 CALM      30.16S
CARLSBAD       CLEAR     75  52  44 CALM      30.18R
DRYDEN           N/A     82  62  50 NE6       30.09R
FORT STOCKTON  SUNNY     73  58  59 E3        30.16R
GUAD PASS      CLEAR     71  54  54 NE13      30.33R
HOBBS          SUNNY     72  55  56 CALM      30.22S
MARFA          CLEAR     63  55  77 N3        30.29R
MIDLAND AIRPK  SUNNY     75  63  66 CALM      30.16R HAZE
MIDLAND INTL   SUNNY     76  62  62 S5        30.15R
ODESSA         SUNNY     76  61  59 S3        30.17R
PECOS          SUNNY     72  58  60 E6        30.12S
PRESIDIO       FAIR      79  56  44 N8        30.13R
SEMINOLE       SUNNY     71  56  60 CALM      30.20S
SNYDER         SUNNY     72  63  73 W3        30.15R
WINK           SUNNY     74  64  71 E6        30.14R
$$
...OTHER STATIONS IN TEXAS...

CITY           SKY/WX    TMP DP  RH WIND       PRES   REMARKS
ABILENE        SUNNY     77  66  68 SW3       30.10R
AMARILLO       SUNNY     73  62  68 SW10      30.20R
AUSTIN         CLOUDY    77  72  84 NE9       30.05R
BROWNSVILLE    SUNNY     79  77  94 CALM      29.99R
CORPUS CHRISTI PTSUNNY   77  74  90 CALM      30.00R
DALLAS FTW     PTSUNNY   76  69  79 SE7       30.07R
DEL RIO        PTSUNNY   80  67  64 E7        30.02R
EL PASO        PTCLDY    75  54  47 NE6       30.19R
HOUSTON INT    PTSUNNY   75  71  87 N3        30.02R
LUBBOCK        MOSUNNY   71  62  73 CALM      30.19R
SAN ANGELO     MOSUNNY   75  65  70 CALM      30.10R
SAN ANTONIO    CLOUDY    80  70  71 VRB3      30.03R
WACO           SUNNY     76  68  76 CALM      30.06S
WICHITA FALLS  NOT AVBL
$$
...OTHER LOCATIONS IN NEW MEXICO...

CITY           SKY/WX    TMP DP  RH WIND       PRES   REMARKS
ALAMAGORDO     PTCLDY    68  48  49 NW3       30.23R
ALBUQUERQUE    PTCLDY    69  53  56 NW7       30.32S
CANNON AFB     SUNNY     69  60  72 SW3       30.27R
CLOVIS         NOT AVBL
HOLLOMAN AFB   PTCLDY    70  46  43 NW5       30.22R
ROSWELL        CLEAR     70  55  59 CALM      30.22R
RUIDOSO        CLEAR     63  45  51 MISG      30.44S
SANTA FE       CLEAR     61  50  67 NW3       30.39R
TRUTH OR CONSE LGT RAIN  68  53  58 NW6       30.26R
TUCUMCARI      SUNNY     74  58  57 SW7       30.23R
$$

USA.gov is the U.S. government's official web portal to all federal, state and local government web resources and services.